Weather History for Antalya, Turkey

Change the Weather History Date:

Thursday, October 25, 2012

  Actual Average Record
Temperature  
Mean Temperature 66 °F -  
Max Temperature 72 °F 72 °F 86 °F (2004)
Min Temperature 59 °F 52 °F 50 °F (2005)
Growing Degree Days 16 (Base 50)    
Moisture  
Dew Point 57 °F    
Average Humidity 76    
Maximum Humidity 88    
Minimum Humidity 46    
Precipitation  
Precipitation 0.00 in 0.18 in - ()
Sea Level Pressure  
Sea Level Pressure 29.85 in    
Wind  
Wind Speed 4 mph ()    
Max Wind Speed 9 mph    
Max Gust Speed -    
Visibility 6.2 miles    
Events Thunderstorm    
Averages and records for this station are not official NWS values.
T = Trace of Precipitation, MM = Missing Value Source: Averaged Metar Reports

Daily Weather History Graph

Daily Weather History Graph

Search for Another Location

Airport:

Trip Planner

Search our weather history database for the weather conditions in past years. The results will help you decide how hot, cold, wet, or windy it might be!

Date:

Astronomy

Oct. 25, 2012 Rise Set
Actual Time 7:13 AM EEST 6:07 PM EEST
Civil Twilight 6:47 AM EEST 6:33 PM EEST
Nautical Twilight 6:17 AM EEST 7:04 PM EEST
Astronomical Twilight 5:46 AM EEST 7:34 PM EEST
Moon 3:38 PM EEST (10/25) 2:56 AM EEST (10/25)
Length of Visible Light 11h 46m
Length of Day
10h 53m
Waxing Gibbous, 82% of the Moon is Illuminated
Oct 25
Waxing Gibbous
Oct 29
Full
Nov 7
Last Quarter
Nov 14
New
Nov 20
First Quarter

Hourly Weather History & Observations

Time (EEST) Temp. Dew Point Humidity Pressure Visibility Wind Dir Wind Speed Gust Speed Precip Events Conditions
12:20 AM 60.8 °F 57.2 °F 88% 29.92 in 6.2 mi North 3.5 mph - N/A   Scattered Clouds
12:50 AM 60.8 °F 57.2 °F 88% 29.89 in 6.2 mi NW 5.8 mph - N/A   Scattered Clouds
1:20 AM 60.8 °F 57.2 °F 88% 29.89 in 6.2 mi NW 4.6 mph - N/A   Scattered Clouds
1:50 AM 60.8 °F 57.2 °F 88% 29.89 in 6.2 mi NW 3.5 mph - N/A   Scattered Clouds
2:20 AM 60.8 °F 57.2 °F 88% 29.89 in 6.2 mi NNW 5.8 mph - N/A   Scattered Clouds
2:50 AM 60.8 °F 57.2 °F 88% 29.89 in 6.2 mi NNE 3.5 mph - N/A   Scattered Clouds
3:00 AM 61 °F 56 °F 80% 29.88 in 6 mi NNE 3.5 mph - -   Partly Cloudy
3:20 AM 60.8 °F 57.2 °F 88% 29.89 in 6.2 mi NNE 3.5 mph - N/A   Scattered Clouds
3:50 AM 60.8 °F 57.2 °F 88% 29.86 in 6.2 mi North 4.6 mph - N/A   Scattered Clouds
4:20 AM 60.8 °F 57.2 °F 88% 29.86 in 6.2 mi North 5.8 mph - N/A   Scattered Clouds
4:50 AM 60.8 °F 55.4 °F 82% 29.86 in 6.2 mi ENE 4.6 mph - N/A   Scattered Clouds
5:20 AM 60.8 °F 55.4 °F 82% 29.86 in 6.2 mi Variable 2.3 mph - N/A   Scattered Clouds
5:50 AM 62.6 °F 55.4 °F 77% 29.86 in 6.2 mi ENE 4.6 mph - N/A   Scattered Clouds
6:20 AM 62.6 °F 55.4 °F 77% 29.86 in 6.2 mi NNW 6.9 mph - N/A   Scattered Clouds
6:50 AM 60.8 °F 55.4 °F 82% 29.86 in 6.2 mi North 9.2 mph - N/A   Scattered Clouds
7:20 AM 60.8 °F 55.4 °F 82% 29.86 in 6.2 mi NNW 6.9 mph - N/A   Mostly Cloudy
7:50 AM 59.0 °F 55.4 °F 88% 29.86 in 6.2 mi NNW 6.9 mph - N/A   Scattered Clouds
8:20 AM 60.8 °F 55.4 °F 82% 29.86 in 6.2 mi NNW 8.1 mph - N/A   Scattered Clouds
8:50 AM 60.8 °F 55.4 °F 82% 29.86 in 6.2 mi NNW 9.2 mph - N/A   Scattered Clouds
9:00 AM 61 °F 55 °F 76% 29.85 in 6 mi NNW 9.2 mph - -   Partly Cloudy
9:20 AM 60.8 °F 55.4 °F 82% 29.86 in 6.2 mi NNW 8.1 mph - N/A   Scattered Clouds
9:50 AM 64.4 °F 57.2 °F 77% 29.83 in 6.2 mi North 5.8 mph - N/A   Scattered Clouds
10:20 AM 66.2 °F 57.2 °F 73% 29.86 in 6.2 mi NW 4.6 mph - N/A   Scattered Clouds
10:50 AM 68.0 °F 57.2 °F 68% 29.86 in 6.2 mi NNW 3.5 mph - N/A   Scattered Clouds
11:20 AM 68.0 °F 57.2 °F 68% 29.83 in 6.2 mi NNW 5.8 mph - N/A   Scattered Clouds
11:50 AM 69.8 °F 57.2 °F 64% 29.83 in 6.2 mi NW 4.6 mph - N/A   Scattered Clouds
12:20 PM 69.8 °F 57.2 °F 64% 29.83 in 6.2 mi North 4.6 mph - N/A   Scattered Clouds
12:50 PM 69.8 °F 59.0 °F 68% 29.83 in 6.2 mi ENE 4.6 mph - N/A   Mostly Cloudy
1:20 PM 71.6 °F 57.2 °F 60% 29.83 in 6.2 mi ENE 4.6 mph - N/A   Mostly Cloudy
1:50 PM 69.8 °F 55.4 °F 60% 29.83 in 6.2 mi NE 5.8 mph - N/A   Mostly Cloudy
2:20 PM 71.6 °F 57.2 °F 60% 29.80 in 6.2 mi NE 6.9 mph - N/A   Mostly Cloudy
2:50 PM 71.6 °F 55.4 °F 57% 29.80 in 6.2 mi East 4.6 mph - N/A   Mostly Cloudy
3:00 PM 71 °F 54 °F 46% 29.80 in 6 mi East 4.6 mph - -   Mostly Cloudy
3:50 PM 71.6 °F 55.4 °F 57% 29.80 in 6.2 mi ESE 5.8 mph - N/A   Mostly Cloudy
4:20 PM 71.6 °F 57.2 °F 60% 29.80 in 6.2 mi ESE 4.6 mph - N/A   Mostly Cloudy
4:50 PM 69.8 °F 57.2 °F 64% 29.80 in 6.2 mi SSE 3.5 mph - N/A   Mostly Cloudy
5:20 PM 69.8 °F 57.2 °F 64% 29.80 in 6.2 mi Variable 2.3 mph - N/A   Mostly Cloudy
5:50 PM 68.0 °F 57.2 °F 68% 29.80 in 6.2 mi SE 2.3 mph - N/A   Mostly Cloudy
6:20 PM 66.2 °F 59.0 °F 78% 29.80 in 6.2 mi SSE 1.2 mph - N/A   Mostly Cloudy
6:50 PM 64.4 °F 59.0 °F 83% 29.83 in 6.2 mi NW 1.2 mph - N/A   Mostly Cloudy
7:20 PM 64.4 °F 57.2 °F 77% 29.83 in 6.2 mi NNW 3.5 mph - N/A   Mostly Cloudy
7:50 PM 64.4 °F 57.2 °F 77% 29.83 in 6.2 mi NW 3.5 mph - N/A Thunderstorm Thunderstorm
8:20 PM 64.4 °F 59.0 °F 83% 29.83 in 6.2 mi NNW 4.6 mph - N/A Thunderstorm Thunderstorm
8:50 PM 64.4 °F 59.0 °F 83% 29.83 in 6.2 mi NE 3.5 mph - N/A Thunderstorm Thunderstorm
9:00 PM 64 °F 58 °F 76% 29.83 in 6 mi NE 3.5 mph - - Thunderstorm Thunderstorm
9:20 PM 64.4 °F 59.0 °F 83% 29.83 in 6.2 mi North 3.5 mph - N/A Thunderstorm Thunderstorm
9:50 PM 62.6 °F 59.0 °F 88% 29.86 in 6.2 mi ENE 4.6 mph - N/A Thunderstorm Thunderstorm
10:20 PM 64.4 °F 57.2 °F 77% 29.86 in 6.2 mi East 4.6 mph - N/A Thunderstorm Mostly Cloudy
10:50 PM 62.6 °F 57.2 °F 82% 29.86 in 6.2 mi Variable 1.2 mph - N/A Thunderstorm Mostly Cloudy
11:20 PM 60.8 °F 57.2 °F 88% 29.86 in 6.2 mi Calm Calm - N/A Thunderstorm Scattered Clouds
11:50 PM 62.6 °F 57.2 °F 82% 29.86 in 6.2 mi SSE 2.3 mph - N/A   Scattered Clouds